Погода в Малом Атлыме

Россия / Ханты-Мансийский автономный округ - Югра     62°13′31″N   66°57′48″E
темп.,
°C
ветер,
м/с
пор.,
м/с
влажн.,
%
обл.,
%
осадки,
мм/ч
давл.,
гПа
погр.,
м
6 марта, сб
сб623:00−16с119773 0.0 99720
02:00−16ссв11988 0.0 99620
05:00−17ссв12986 0.0 99720
08:00−17ссв129783 0.0 99720
11:00−11ссз129091 0.0 996212
14:00−8зсз2387100 0.0 997448
17:00−10з2495100 0.1 998198
20:00−12зсз2396100 0.1 100064
7 марта, вс
вс723:00−13сз2496100 0.3 1001121
02:00−16зсз259796 0.1 1002108
05:00−19з239997 0.1 100446
08:00−22з239774 0.0 100563
11:00−19зюз349037 0.0 1007250
14:00−16юз36874 0.0 1008451
17:00−15ююз239245 0.0 1008162
20:00−19ююз2298100 0.1 100820
8 марта, пн
пн823:00−21ю12100100 0.1 100820
02:00−23ююв0110087 0.0 100720
05:00−22всв119988 0.0 100620
08:00−22ссв119985 0.0 100520
11:00−17ссз138986 0.1 1005351
14:00−15зсз2385100 0.1 1004686
17:00−16зсз2494100 0.1 1005206
20:00−20сз1199100 0.1 100620
9 марта, вт
вт923:00−24ссв119992 0.1 100720
02:00−25всв1210096 0.0 100720
05:00−25всв229898 0.1 100755
08:00−25всв3597100 0.1 1007138
11:00−21всв3595100 0.2 1006217
14:00−19всв3592100 0.1 1007281
17:00−19св3694100 0.1 1007302
20:00−22св359696 0.1 1007175
10 марта, ср
ср1023:00−25ссв249796 0.1 1008107
02:00−28с239753 0.0 100935
05:00−31с229727 0.0 101019
08:00−31ссв119719 0.0 101019
11:00−24зюз118926 0.0 1010242
14:00−23зюз229282 0.0 1009267
17:00−23юз129460 0.0 1007148
20:00−27ююз129961 0.0 100619